Home > Weather > Antofagasta > Past weeks

Flag for Chile Past Weather in Antofagasta, Chile — Yesterday and Last 2 Weeks

Now
59 °F

Passing clouds.


Feels Like: 58 °F
Forecast: N/A
Wind: 8 mph from South

Location: Antofagasta Airport

Current Time: May 24, 2016 at 7:29:30 PM

Latest Report: May 24, 2016 at 7:00 PM


Visibility: N/A

Pressure: 30.01 "Hg

Humidity: 77%

Dew Point: 52 °F

Location of AntofagastaLocation

Past Weather in Antofagasta — Graph

°F

Antofagasta Temperature Yesterday

Maximum temperature yesterday: 63 °F (at 12:00 PM)
Minimum temperature yesterday: 57 °F (at 12:00 AM)
Average temperature yesterday: 59 °F

High & Low Weather Summary for the Past Weeks

 TemperatureHumidityPressure
High72 °F (May 13, 2:00 PM)94% (May 12, 4:00 AM)30.07 "Hg (May 12, 4:00 AM)
Low54 °F (May 20, 8:00 AM)56% (May 14, 1:00 PM)29.86 "Hg (May 13, 4:00 AM)
Average61 °F77%29.98 "Hg
* Reported May 9 7:00 PM — May 24 6:00 PM, Antofagasta, Weather by CustomWeather, © 2016

Note: Actual official high and low records may vary slightly from our data, if they occured in-between our weather recording intervals... More about our weather records

Advertising

Antofagasta Weather History for the Previous 24 Hours

Scroll right to see more
 ConditionsComfort  
Time TempWeatherWind HumidityBarometerVisibility
6:00 PM
Tue, May 24
59 °FPassing clouds.13 mph77%30.01 "HgN/A
5:00 PM61 °FPassing clouds.15 mph68%29.98 "HgN/A
4:00 PM63 °FPassing clouds.12 mph64%29.98 "HgN/A
3:00 PM63 °FPassing clouds.10 mph68%29.98 "HgN/A
2:00 PM63 °FPassing clouds.12 mph68%30.01 "HgN/A
1:00 PM63 °FScattered clouds.13 mph68%30.04 "Hg5 mi
12:00 PM61 °FScattered clouds.7 mph68%30.07 "Hg5 mi
11:00 AM61 °FPartly sunny.5 mph68%30.07 "Hg5 mi
10:00 AM61 °FScattered clouds.7 mph68%30.04 "Hg6 mi
9:00 AM61 °FPartly sunny.3 mph63%30.04 "Hg5 mi
8:00 AM59 °FPartly sunny.No wind72%30.04 "Hg5 mi
7:00 AM59 °FOvercast.2 mph72%30.04 "Hg6 mi
6:00 AM59 °FOvercast.5 mph77%30.01 "HgN/A
5:00 AM59 °FOvercast.5 mph72%30.04 "HgN/A
4:00 AM59 °FOvercast.3 mph77%30.01 "HgN/A
3:00 AM59 °FOvercast.5 mph77%30.01 "HgN/A
2:00 AM59 °FOvercast.No wind77%30.01 "HgN/A
1:00 AM59 °FPassing clouds.5 mph77%30.01 "HgN/A
12:00 AM59 °FPassing clouds.1 mph77%29.98 "HgN/A
11:00 PM
Mon, May 23
57 °FPassing clouds.6 mph88%29.98 "HgN/A
10:00 PM59 °FPassing clouds.6 mph77%29.98 "HgN/A
9:00 PM59 °FOvercast.7 mph77%29.98 "HgN/A
8:00 PM59 °FPassing clouds.10 mph77%29.98 "HgN/A
7:00 PM59 °FPassing clouds.10 mph77%29.95 "HgN/A
Weather by CustomWeather, © 2016

See weather overviewHow to use our weather pages